099  
SXUS52 KJAX 150113  
OSOJAX  
OTHER SURFACE OBSERVATIONS  
NATIONAL WEATHER SERVICE JACKSONVILLE FL  
900 PM EDT TUE AUG 14 2018  
 
FLZ020>025-030>033-035>038-040-150200-   
..FLORIDA
 
 
 
CITY SKY/WX TMP DP RH WIND PRES REMARKS  
CECIL FIELD CLEAR 79 73 83 S3 30.04R  
HERLONG FIELD NOT AVBL  
FERNANDINA BCH NOT AVBL  
LAKE CITY DRIZZLE 75 72 88 SW5 30.04S  
JUNIPER SPGS NOT AVBL  
BUNNELL NOT AVBL  
KEYSTONE HGTS CLEAR 79 77 94 CALM 30.05R  

 
 
GAZ132>136-149>154-162>166-150200-   
..GEORGIA
 
 
 
CITY SKY/WX TMP DP RH WIND PRES REMARKS  
JESUP NOT AVBL  
HOMERVILLE FAIR 75 72 88 SW3 30.03S  
SWAINSBORO MOCLDY 82 73 74 E5 30.03R  
CORDELE NOT AVBL  
EASTMAN FAIR 83 32 16 N3 30.03R  

 
 
PLEASE NOTE: THESE OBSERVATIONS ARE NOT QUALITY CONTROLLED AND MAY  
NOT BE AVAILABLE AT ALL TIMES.  

 
 
 
CLICK HERE TO GO TO PREVIOUS BULLETINS.

The Nexlab FL Page
The Nexlab GA Page Main Text Page